| time (UTC) | temp C | wind direction | speed KPH | gust KPH | rain 1hr cm | rain 24hr cm | rain mn cm | humidity % | barometer mb |
| 20260510004547 | 17 | 238 | 0.0 | 0.0 | 0.00 | 0.00 | 0.00 | 38 | 1014.0 |
| 20260510003050 | 17 | 225 | 0.0 | 6.4 | 0.00 | 0.00 | 0.00 | 39 | 1013.7 |
| 20260510001547 | 18 | 168 | 1.6 | 4.8 | 0.00 | 0.00 | 0.00 | 39 | 1013.7 |
| 20260510000046 | 18 | 212 | 1.6 | 6.4 | 0.00 | 0.00 | 0.00 | 39 | 1013.7 |
| 20260509234546 | 18 | 246 | 6.4 | 11.3 | 0.00 | 0.00 | 0.00 | 38 | 1013.6 |
| 20260509233045 | 18 | 228 | 1.6 | 8.0 | 0.00 | 0.00 | 0.00 | 39 | 1013.6 |
| 20260509231553 | 18 | 125 | 0.0 | 4.8 | 0.00 | 0.00 | 0.00 | 39 | 1013.6 |
| 20260509230044 | 18 | 123 | 1.6 | 4.8 | 0.00 | 0.00 | 0.00 | 38 | 1013.5 |
| 20260509224543 | 18 | 267 | 0.0 | 9.7 | 0.00 | 0.00 | 0.00 | 38 | 1013.6 |
| 20260509223145 | 18 | 213 | 4.8 | 12.9 | 0.00 | 0.00 | 0.00 | 39 | 1013.7 |
| 20260509221542 | 18 | 321 | 0.0 | 8.0 | 0.00 | 0.00 | 0.00 | 36 | 1013.5 |
| 20260509220041 | 18 | 236 | 6.4 | 14.5 | 0.00 | 0.00 | 0.00 | 36 | 1013.7 |
| 20260509214540 | 18 | 180 | 3.2 | 8.0 | 0.00 | 0.00 | 0.00 | 36 | 1013.8 |
| 20260509213039 | 18 | 194 | 3.2 | 11.3 | 0.00 | 0.00 | 0.00 | 36 | 1013.8 |
| 20260509211545 | 17 | 125 | 4.8 | 9.7 | 0.00 | 0.00 | 0.00 | 36 | 1014.0 |
| 20260509210040 | 17 | 20 | 3.2 | 8.0 | 0.00 | 0.00 | 0.00 | 35 | 1013.9 |
| 20260509204536 | 17 | 257 | 3.2 | 12.9 | 0.00 | 0.00 | 0.00 | 35 | 1013.9 |
| 20260509203036 | 17 | 259 | 4.8 | 11.3 | 0.00 | 0.00 | 0.00 | 35 | 1013.8 |
| 20260509201535 | 17 | 279 | 4.8 | 9.7 | 0.00 | 0.00 | 0.00 | 35 | 1013.7 |
| 20260509200038 | 17 | 72 | 6.4 | 12.9 | 0.00 | 0.00 | 0.00 | 35 | 1013.7 |
| 20260509194535 | 17 | 67 | 3.2 | 11.3 | 0.00 | 0.00 | 0.00 | 35 | 1013.8 |
| 20260509193033 | 17 | 236 | 3.2 | 9.7 | 0.00 | 0.00 | 0.00 | 35 | 1013.9 |
| 20260509191532 | 17 | 333 | 4.8 | 11.3 | 0.00 | 0.00 | 0.00 | 36 | 1013.8 |
| 20260509190031 | 17 | 315 | 0.0 | 6.4 | 0.00 | 0.00 | 0.00 | 36 | 1013.8 |
| 20260509184538 | 17 | 268 | 4.8 | 8.0 | 0.00 | 0.00 | 0.00 | 36 | 1013.7 |
| 20260509183030 | 17 | 345 | 4.8 | 11.3 | 0.00 | 0.00 | 0.00 | 35 | 1013.7 |
| 20260509181527 | 17 | 244 | 0.0 | 11.3 | 0.00 | 0.00 | 0.00 | 36 | 1013.5 |
| 20260509180025 | 17 | 275 | 1.6 | 11.3 | 0.00 | 0.00 | 0.00 | 36 | 1013.4 |
| 20260509174532 | 17 | 278 | 4.8 | 12.9 | 0.00 | 0.00 | 0.00 | 37 | 1013.4 |
| 20260509173022 | 17 | 15 | 3.2 | 9.7 | 0.00 | 0.00 | 0.00 | 37 | 1013.3 |
| 20260509171521 | 17 | 17 | 0.0 | 9.7 | 0.00 | 0.00 | 0.00 | 37 | 1013.2 |
| 20260509170020 | 16 | 297 | 4.8 | 12.9 | 0.00 | 0.00 | 0.00 | 37 | 1013.2 |
| 20260509164519 | 16 | 325 | 4.8 | 11.3 | 0.00 | 0.00 | 0.00 | 38 | 1013.2 |
| 20260509163027 | 16 | 243 | 4.8 | 14.5 | 0.00 | 0.00 | 0.00 | 38 | 1013.1 |
| 20260509161518 | 16 | 298 | 8.0 | 12.9 | 0.00 | 0.00 | 0.00 | 38 | 1013.0 |
| 20260509160015 | 16 | 246 | 4.8 | 9.7 | 0.00 | 0.00 | 0.00 | 40 | 1012.8 |
| 20260509154513 | 16 | 317 | 1.6 | 9.7 | 0.00 | 0.00 | 0.00 | 39 | 1012.7 |
| 20260509153009 | 15 | 355 | 8.0 | 16.1 | 0.00 | 0.00 | 0.00 | 43 | 1012.6 |
| 20260509151506 | 14 | 355 | 3.2 | 14.5 | 0.00 | 0.00 | 0.00 | 49 | 1012.6 |
| 20260509150002 | 13 | 319 | 3.2 | 6.4 | 0.00 | 0.00 | 0.00 | 52 | 1012.6 |
| 20260509144604 | 12 | 282 | 1.6 | 8.0 | 0.00 | 0.00 | 0.00 | 55 | 1012.5 |
| 20260509143100 | 11 | 305 | 3.2 | 8.0 | 0.00 | 0.00 | 0.00 | 57 | 1012.5 |
| 20260509141608 | 11 | 296 | 3.2 | 8.0 | 0.00 | 0.00 | 0.00 | 58 | 1012.4 |
| 20260509140103 | 10 | 295 | 3.2 | 8.0 | 0.00 | 0.00 | 0.00 | 59 | 1012.3 |
| 20260509134557 | 10 | 300 | 3.2 | 8.0 | 0.00 | 0.00 | 0.00 | 60 | 1012.2 |
| 20260509133055 | 10 | 308 | 3.2 | 8.0 | 0.00 | 0.00 | 0.00 | 60 | 1012.1 |
| 20260509131553 | 10 | 348 | 1.6 | 8.0 | 0.00 | 0.00 | 0.00 | 60 | 1011.9 |
| 20260509130051 | 9 | 325 | 3.2 | 8.0 | 0.00 | 0.00 | 0.00 | 60 | 1011.9 |
| 20260509124557 | 9 | 347 | 1.6 | 4.8 | 0.00 | 0.00 | 0.00 | 60 | 1011.6 |
| 20260509123055 | 9 | 42 | 1.6 | 6.4 | 0.00 | 0.00 | 0.00 | 60 | 1011.3 |
| 20260509121546 | 9 | 241 | 3.2 | 9.7 | 0.00 | 0.00 | 0.00 | 59 | 1011.3 |
| 20260509120043 | 9 | 11 | 4.8 | 9.7 | 0.00 | 0.00 | 0.00 | 58 | 1011.0 |
| 20260509114543 | 9 | 19 | 4.8 | 14.5 | 0.00 | 0.00 | 0.00 | 58 | 1010.8 |
| 20260509113050 | 9 | 5 | 8.0 | 16.1 | 0.00 | 0.00 | 0.00 | 57 | 1010.7 |
| 20260509111545 | 10 | 26 | 6.4 | 11.3 | 0.00 | 0.00 | 0.00 | 57 | 1010.3 |
| 20260509110033 | 10 | 17 | 6.4 | 14.5 | 0.00 | 0.00 | 0.00 | 57 | 1010.3 |
| 20260509104531 | 10 | 360 | 4.8 | 11.3 | 0.00 | 0.00 | 0.00 | 56 | 1010.3 |
| 20260509103029 | 10 | 31 | 6.4 | 16.1 | 0.00 | 0.00 | 0.00 | 55 | 1010.1 |
| 20260509101530 | 10 | 32 | 9.7 | 16.1 | 0.00 | 0.00 | 0.00 | 55 | 1009.9 |
| 20260509100023 | 11 | 11 | 8.0 | 11.3 | 0.00 | 0.00 | 0.00 | 55 | 1009.7 |
| 20260509094523 | 11 | 17 | 6.4 | 11.3 | 0.00 | 0.00 | 0.00 | 55 | 1009.7 |
| 20260509093018 | 10 | 360 | 4.8 | 8.0 | 0.00 | 0.00 | 0.00 | 58 | 1009.4 |
| 20260509091515 | 10 | 333 | 0.0 | 3.2 | 0.00 | 0.00 | 0.00 | 58 | 1009.4 |
| 20260509090011 | 11 | 360 | 3.2 | 8.0 | 0.00 | 0.00 | 0.00 | 55 | 1009.4 |
| 20260509084509 | 11 | 360 | 4.8 | 8.0 | 0.00 | 0.00 | 0.00 | 53 | 1009.2 |
| 20260509083008 | 12 | 111 | 1.6 | 3.2 | 0.00 | 0.00 | 0.00 | 54 | 1009.0 |
| 20260509081506 | 11 | 134 | 0.0 | 0.0 | 0.00 | 0.00 | 0.00 | 55 | 1008.9 |
| 20260509080001 | 12 | 135 | 1.6 | 4.8 | 0.00 | 0.00 | 0.00 | 54 | 1008.8 |
| 20260509074602 | 12 | 111 | 6.4 | 12.9 | 0.00 | 0.00 | 0.00 | 52 | 1008.7 |
| 20260509073106 | 12 | 103 | 6.4 | 12.9 | 0.00 | 0.00 | 0.00 | 51 | 1008.6 |
| 20260509071554 | 12 | 80 | 11.3 | 17.7 | 0.00 | 0.00 | 0.00 | 50 | 1008.4 |
| 20260509070051 | 12 | 80 | 9.7 | 14.5 | 0.00 | 0.00 | 0.00 | 50 | 1008.1 |
| 20260509064547 | 13 | 69 | 6.4 | 16.1 | 0.00 | 0.00 | 0.00 | 49 | 1008.0 |
| 20260509063043 | 13 | 62 | 8.0 | 17.7 | 0.00 | 0.00 | 0.00 | 47 | 1007.8 |
| 20260509061555 | 13 | 86 | 9.7 | 17.7 | 0.00 | 0.00 | 0.00 | 46 | 1007.8 |
| 20260509060037 | 13 | 94 | 9.7 | 17.7 | 0.00 | 0.00 | 0.00 | 45 | 1007.7 |
| 20260509054548 | 14 | 88 | 9.7 | 20.9 | 0.00 | 0.00 | 0.00 | 44 | 1007.7 |
| 20260509053052 | 14 | 360 | 12.9 | 22.5 | 0.00 | 0.00 | 0.00 | 43 | 1007.5 |
| 20260509051536 | 14 | 49 | 14.5 | 24.1 | 0.00 | 0.00 | 0.00 | 41 | 1007.2 |
| 20260509050036 | 15 | 5 | 11.3 | 17.7 | 0.00 | 0.00 | 0.00 | 39 | 1007.0 |
| 20260509044543 | 15 | 355 | 6.4 | 11.3 | 0.00 | 0.00 | 0.00 | 35 | 1006.7 |
| 20260509043035 | 15 | 337 | 6.4 | 12.9 | 0.00 | 0.00 | 0.00 | 32 | 1006.4 |
| 20260509041535 | 16 | 335 | 4.8 | 19.3 | 0.00 | 0.00 | 0.00 | 30 | 1006.4 |
| 20260509040036 | 16 | 355 | 4.8 | 11.3 | 0.00 | 0.00 | 0.00 | 29 | 1006.2 |
| 20260509034536 | 16 | 360 | 4.8 | 12.9 | 0.00 | 0.00 | 0.00 | 29 | 1006.0 |
| 20260509033033 | 17 | 360 | 4.8 | 11.3 | 0.00 | 0.00 | 0.00 | 28 | 1005.8 |
| 20260509031534 | 17 | 327 | 8.0 | 19.3 | 0.00 | 0.00 | 0.00 | 26 | 1005.6 |
| 20260509030032 | 17 | 355 | 6.4 | 11.3 | 0.00 | 0.00 | 0.00 | 27 | 1005.2 |
| 20260509024535 | 18 | 355 | 6.4 | 14.5 | 0.00 | 0.00 | 0.00 | 26 | 1005.0 |
| 20260509023034 | 18 | 344 | 9.7 | 17.7 | 0.00 | 0.00 | 0.00 | 25 | 1004.9 |
| 20260509021531 | 19 | 360 | 11.3 | 17.7 | 0.00 | 0.00 | 0.00 | 25 | 1004.8 |
| 20260509020036 | 20 | 340 | 14.5 | 20.9 | 0.00 | 0.00 | 0.00 | 24 | 1004.8 |
| 20260509014534 | 20 | 355 | 12.9 | 20.9 | 0.00 | 0.00 | 0.00 | 24 | 1004.7 |
| 20260509013029 | 20 | 293 | 11.3 | 20.9 | 0.00 | 0.00 | 0.00 | 25 | 1004.6 |
| 20260509011529 | 21 | 319 | 11.3 | 27.4 | 0.00 | 0.00 | 0.00 | 26 | 1004.6 |
| 20260509010028 | 21 | 346 | 17.7 | 29.0 | 0.00 | 0.00 | 0.00 | 25 | 1004.5 |